Wind_Speed
8 6 5 6 7 6 6 7 7 7 7 8 8 8 9 8 9 9 8 9 10 9 8 8 9 8 9 9 9 7 7 6 6 6 7 8 8 8 9 10 10 9 9 9 9 9 9 10 10 10 10 9 8 8 8 8 8 8 8 9 9 9 10 10 10 10 11 10 11 11 12 11 11 12 12 12 12 12 13 13 13 14 15 15 16
7 6 5 5 6 6 6 6 7 7 8 8 8 8 9 9 9 8 8 9 9 8 8 8 8 8 8 9 9 7 7 7 6 6 6 7 7 8 8 9 9 9 9 9 9 9 10 10 10 10 10 9 9 9 8 8 8 8 9 10 10 10 10 11 11 11 11 11 11 11 12 12 12 12 13 13 13 13 13 14 14 15 15 15 15
5 5 5 4 5 6 6 7 7 8 9 9 8 8 9 9 9 9 9 9 9 9 8 7 8 8 8 8 8 7 6 7 7 6 6 6 7 7 7 8 8 8 8 9 9 10 10 10 10 10 10 9 9 8 8 8 8 9 10 10 11 11 11 12 12 12 12 12 12 12 12 12 13 13 13 14 14 14 14 15 16 16 16 16 15
5 5 4 4 4 5 6 6 7 8 8 8 8 8 9 8 8 10 10 9 9 9 8 7 7 7 8 9 8 8 7 7 8 7 6 6 6 6 7 7 8 8 8 9 9 10 10 10 10 9 9 9 8 8 8 8 9 9 10 10 11 11 12 12 13 13 13 12 12 12 12 13 13 13 14 15 15 15 16 16 16 16 16 16 15
5 5 5 4 4 5 6 6 6 7 7 7 7 7 8 8 7 8 9 9 9 8 7 8 7 6 8 9 8 8 7 7 7 7 7 7 7 6 6 7 7 8 8 8 9 9 10 9 9 9 8 8 7 7 8 8 9 9 9 10 11 11 12 13 13 13 13 13 13 13 12 12 13 14 14 15 16 16 16 16 16 15 15 15 14
6 6 6 5 5 6 7 6 6 6 5 6 7 6 7 8 7 7 8 9 8 8 8 8 7 6 8 9 8 8 8 7 7 7 7 7 7 6 6 7 8 8 8 8 8 9 10 10 9 8 7 7 7 7 8 8 9 9 10 10 11 12 13 14 14 15 15 14 14 14 13 13 13 14 15 15 16 16 15 15 14 14 14 14 14
7 7 6 6 6 6 7 7 6 6 5 5 7 7 6 7 7 7 8 9 8 8 8 8 7 7 7 8 8 8 8 7 6 6 7 7 7 7 7 8 8 9 8 8 8 9 10 10 9 8 8 8 7 7 8 9 9 10 10 10 11 12 13 15 16 16 16 16 15 15 14 14 14 14 14 15 14 14 14 14 14 14 14 14 15
7 7 6 6 7 7 7 7 6 6 5 4 6 7 5 6 8 7 8 8 8 8 7 8 8 7 7 8 8 8 7 7 6 6 6 6 6 7 8 8 8 9 8 8 9 9 9 9 9 9 9 9 9 8 8 9 9 10 10 10 12 13 13 15 16 16 16 16 15 15 14 14 13 13 14 13 13 14 14 14 14 14 14 15 15
7 7 7 7 7 7 7 7 8 6 5 5 5 6 6 6 7 7 7 7 8 8 7 7 8 8 8 8 8 8 7 6 5 5 5 5 6 6 7 7 8 8 7 7 8 9 9 9 9 9 9 10 10 9 9 9 9 9 9 10 11 12 13 14 15 15 15 15 14 14 13 13 13 13 13 13 13 13 13 14 14 14 14 14 15
7 8 8 7 6 7 7 7 8 7 6 5 5 6 7 6 7 8 8 7 7 7 7 7 8 7 8 9 9 8 7 7 5 5 5 5 6 6 6 6 7 8 7 6 7 8 8 9 8 8 9 10 10 10 9 9 8 9 9 10 11 11 13 14 14 14 14 13 13 13 13 13 13 13 13 13 14 14 14 14 13 13 14 14 14
8 9 9 7 7 7 7 8 8 7 6 6 6 6 7 7 7 8 8 7 7 7 7 8 8 7 8 9 9 8 7 6 6 5 4 5 6 5 6 7 7 7 7 5 5 5 6 7 6 7 9 9 9 9 9 9 9 9 10 10 10 11 12 13 13 13 13 13 13 13 13 13 14 14 14 15 16 16 16 15 15 15 14 14 14
8 9 9 8 7 7 8 9 8 7 7 6 7 7 8 8 8 8 9 8 8 7 8 8 8 8 8 9 9 8 7 6 5 5 4 5 5 5 6 7 7 6 6 5 3 3 4 5 5 6 7 7 7 8 8 9 9 10 10 10 11 12 12 12 12 13 13 13 13 13 14 14 14 15 16 17 18 18 19 18 18 17 17 16 16
8 9 10 9 7 7 8 9 8 8 8 7 7 7 8 9 8 8 8 9 8 8 8 8 8 8 8 8 8 8 6 5 5 4 4 4 5 5 7 7 6 6 5 4 4 4 4 5 5 6 5 5 6 7 8 9 9 10 11 12 12 12 12 13 14 14 14 14 14 14 15 15 15 16 17 18 19 19 20 20 19 19 18 18 17
9 9 9 9 8 8 9 9 9 8 8 8 8 7 8 8 8 8 7 7 8 8 8 8 8 8 8 8 7 7 6 4 4 4 4 4 4 6 6 6 5 5 4 3 4 5 5 6 7 7 6 6 6 7 8 9 10 11 13 13 13 13 13 14 14 14 14 14 14 15 15 15 15 16 16 17 18 19 19 19 19 19 18 18 18
9 9 9 8 8 8 8 9 9 8 7 8 8 8 8 7 7 7 7 7 7 7 8 8 7 7 7 7 6 6 6 4 4 4 4 4 4 5 5 5 4 4 4 4 4 5 6 7 8 7 7 7 6 8 9 11 12 13 13 14 14 14 14 14 15 15 14 14 14 14 14 14 14 15 15 16 16 17 17 18 18 18 19 19 18
8 8 8 8 8 7 8 8 9 8 8 7 8 8 8 7 6 7 7 6 6 7 8 7 6 6 6 6 5 5 5 5 5 4 4 4 5 5 5 4 4 4 5 5 5 6 7 7 7 7 8 9 9 10 11 12 13 14 14 15 14 14 14 14 14 13 13 13 13 13 13 13 14 14 15 15 16 16 16 17 17 18 18 18 18
8 8 8 8 7 7 7 7 8 8 8 7 8 8 8 7 7 6 6 6 6 6 7 7 6 6 6 5 4 5 5 6 5 5 4 3 4 5 6 5 3 4 5 5 5 6 6 6 7 8 9 10 11 13 14 14 15 15 15 15 15 14 14 13 12 12 11 11 11 12 12 13 13 14 15 15 15 15 15 16 16 17 17 17 18
9 8 8 8 8 7 6 7 8 8 8 7 7 7 7 7 6 6 5 5 7 7 7 7 6 6 5 5 5 5 6 6 6 6 5 4 4 5 7 7 4 3 4 4 4 5 5 6 7 8 9 11 13 14 15 16 16 16 16 15 15 14 13 13 12 11 11 11 12 12 12 13 14 14 14 15 15 15 15 15 16 16 16 17 17
10 9 8 8 8 7 6 6 7 7 7 7 6 5 6 6 6 6 5 6 6 7 7 7 6 6 5 6 6 5 5 6 6 6 6 6 5 4 8 10 7 5 5 4 6 7 7 8 9 10 11 13 15 15 16 16 16 16 15 14 14 13 13 12 12 12 12 12 13 13 13 14 14 15 15 15 16 16 16 16 17 17 17 17 17
10 9 8 8 8 7 7 6 6 7 7 6 6 5 5 5 6 6 6 6 6 6 7 7 7 7 6 6 6 6 5 5 5 5 5 5 6 7 8 10 9 7 7 7 8 9 8 9 10 11 13 14 15 16 16 15 15 14 14 13 13 12 12 12 12 12 13 13 14 14 15 15 15 16 16 17 17 18 18 18 19 19 19 19 19
10 9 9 8 8 8 7 7 6 6 6 6 5 5 4 4 4 5 5 6 6 6 6 6 8 8 7 7 7 6 6 5 5 5 5 4 5 8 6 6 6 5 6 6 7 7 8 9 11 12 14 15 15 15 15 14 13 13 13 12 12 11 11 12 12 13 13 14 15 16 16 17 17 18 18 19 19 20 20 20 21 21 21 21 20
10 9 8 8 8 8 7 7 7 6 6 6 5 5 4 4 3 4 5 5 5 6 6 7 7 8 7 7 7 7 7 7 5 5 6 4 3 5 5 4 5 4 4 5 6 7 8 10 12 13 14 15 15 14 13 12 12 12 12 11 11 11 11 12 13 14 15 15 16 17 18 18 19 20 20 21 22 22 22 23 23 23 23 23 22
11 9 8 8 8 8 7 7 7 6 5 5 5 5 4 4 3 3 4 4 5 5 6 7 7 7 8 7 7 7 6 6 6 5 5 4 4 5 6 6 5 5 6 6 6 8 9 11 13 13 14 14 13 12 11 11 11 10 10 10 10 11 12 13 14 15 16 17 18 19 20 21 22 22 23 24 24 24 25 25 25 25 25 25 24
11 10 9 9 8 8 8 7 6 6 5 5 5 5 4 4 4 3 3 3 4 5 5 6 7 7 7 7 7 7 7 6 5 5 5 5 5 5 6 7 5 5 7 7 7 9 11 13 14 13 13 12 11 10 10 10 10 10 10 11 12 13 14 15 16 17 18 19 20 22 23 24 25 26 26 27 27 27 28 28 28 28 28 27 26
12 11 10 10 9 9 8 8 8 7 6 5 5 4 4 4 4 4 3 3 3 4 4 4 5 5 6 6 6 6 7 6 5 5 5 5 6 5 5 7 6 7 8 8 9 10 11 13 13 12 11 10 9 9 9 9 9 10 11 13 14 15 16 17 18 19 21 22 23 25 26 26 27 27 27 28 28 28 28 28 29 29 28 28 29
14 12 11 11 10 10 9 9 9 8 7 6 6 5 5 4 4 4 4 4 3 3 3 3 4 4 5 5 5 5 6 5 4 5 5 5 6 6 5 6 6 7 9 10 10 10 11 12 12 10 9 8 7 7 8 8 10 11 12 14 15 17 18 20 21 22 23 25 25 26 26 27 27 27 27 26 26 27 27 27 28 29 28 29 30
15 14 14 13 11 11 11 10 10 9 8 7 6 6 6 5 5 5 5 5 4 3 3 3 3 4 4 4 4 5 5 5 4 4 5 5 5 6 6 6 7 7 8 9 9 9 9 10 10 8 7 6 6 7 8 9 10 12 13 15 16 18 21 22 24 25 25 26 26 26 26 26 27 27 27 26 26 27 27 27 28 29 29 30 30
17 16 16 15 13 12 12 11 11 10 9 8 7 6 6 6 6 6 6 6 5 4 4 3 3 3 4 4 4 4 5 5 5 5 5 5 5 6 6 6 7 7 7 8 7 7 7 8 7 6 5 5 6 7 8 10 12 14 16 18 19 21 22 24 25 26 26 26 27 27 27 27 28 28 29 29 29 29 29 29 29 30 30 31 31
19 18 17 17 16 14 13 13 12 11 10 9 7 6 6 7 7 8 8 7 6 6 5 4 4 3 3 4 4 4 4 4 5 5 5 5 5 6 6 7 7 6 6 6 5 4 4 4 4 4 4 5 6 8 10 12 15 17 18 20 22 23 24 23 24 24 25 26 27 28 29 29 29 30 30 31 31 31 31 31 31 31 31 31 32
19 19 19 18 17 16 15 14 13 12 10 10 8 7 6 7 8 9 9 9 8 7 6 6 5 5 4 4 4 4 4 5 5 5 5 5 5 5 6 6 6 5 5 4 3 2 2 2 2 3 4 6 8 10 12 14 17 19 20 22 23 25 25 25 25 26 26 27 28 29 30 31 32 32 32 32 32 31 31 30 30 30 31 31 31
20 20 20 18 18 18 17 16 15 13 12 11 9 8 7 7 8 9 10 10 9 9 8 8 7 7 6 5 4 4 4 5 5 5 4 4 4 4 4 4 3 3 3 2 1 0 1 2 5 7 9 10 11 13 14 16 19 21 23 24 25 26 28 29 30 30 31 32 32 32 32 32 32 33 32 32 31 30 29 28 28 28 29 29 30
22 22 21 19 18 19 18 18 17 15 14 13 11 10 9 9 9 9 10 10 10 10 10 10 10 9 8 7 6 5 4 4 5 4 4 4 3 3 3 2 2 2 1 1 2 3 4 4 7 10 13 15 16 18 21 22 24 26 27 27 27 27 27 28 29 30 31 32 32 31 31 30 29 29 29 28 28 27 27 27 28 28 29 30 30
24 24 23 20 19 20 20 19 18 17 15 14 13 12 10 9 9 9 10 10 10 11 12 12 11 10 10 9 8 7 6 5 5 5 5 5 4 4 4 4 3 3 2 3 3 4 6 8 10 12 15 17 18 20 22 23 24 25 25 26 26 27 27 28 28 29 30 30 29 28 27 26 24 23 23 24 25 26 27 28 29 29 30 30 30
25 25 24 22 19 20 22 21 20 18 17 16 15 13 12 10 10 9 10 10 11 12 13 13 13 12 12 12 11 10 9 7 6 6 6 6 5 5 5 5 4 4 4 5 5 5 7 9 12 13 15 17 18 19 21 21 21 21 22 23 25 26 27 28 29 30 30 30 30 28 25 23 21 21 21 22 23 25 27 28 29 30 30 30 31
26 25 25 23 20 20 22 22 22 20 18 18 17 16 13 12 11 10 10 11 11 12 13 14 14 14 14 13 12 12 11 10 9 8 8 8 7 7 6 6 6 6 6 7 7 8 8 9 11 13 15 16 17 18 19 20 21 21 21 22 23 24 26 28 30 30 31 30 29 27 24 22 22 22 23 24 25 26 28 29 30 31 31 32 32
27 26 24 24 23 22 22 22 23 22 20 19 19 17 15 14 13 12 11 11 11 11 13 14 15 15 15 14 14 14 14 13 11 10 10 10 10 9 8 8 8 8 9 9 10 11 11 11 13 14 15 15 15 16 17 18 18 19 19 20 22 25 28 30 31 31 32 31 30 28 25 23 23 23 24 25 26 27 28 30 32 32 32 33 33
27 26 24 24 24 24 23 22 22 23 21 20 19 19 17 15 14 14 13 13 12 11 12 13 14 15 15 15 15 16 16 15 14 13 12 12 12 12 11 11 11 11 11 11 12 13 13 14 14 13 14 14 14 14 16 16 16 18 20 23 25 28 30 31 32 33 33 32 31 29 26 24 23 24 24 25 26 27 29 31 32 33 34 34 34
27 27 25 24 23 23 22 22 21 22 22 21 20 19 19 17 16 15 14 14 13 12 12 13 14 14 15 15 16 16 17 16 16 15 15 15 14 14 13 13 13 13 13 12 13 13 14 14 13 12 12 13 13 13 15 17 19 21 24 26 28 30 32 33 34 35 35 33 32 30 27 24 24 24 25 25 26 27 29 32 32 33 34 35 34
26 26 25 24 23 22 21 21 21 21 21 21 21 20 19 18 17 16 15 14 14 13 13 14 14 14 14 15 15 16 17 17 17 17 17 17 17 16 15 15 15 14 14 14 14 14 13 13 12 12 12 12 14 15 16 19 21 23 25 28 30 33 35 36 36 35 34 33 33 31 27 24 24 25 26 26 27 28 31 33 33 34 35 35 34
26 26 25 23 23 23 21 20 21 22 21 22 22 21 20 19 18 16 16 15 15 15 14 14 15 14 14 14 15 16 17 18 18 18 18 18 17 17 17 16 15 15 15 14 14 13 13 12 12 13 13 13 15 16 17 19 21 23 26 29 31 34 37 39 39 36 33 32 32 32 28 25 24 25 26 26 28 30 32 34 34 35 35 35 34
27 27 26 23 22 23 22 20 21 23 23 22 22 21 20 19 19 17 16 16 16 16 15 15 15 15 14 15 15 16 17 18 18 18 18 18 18 18 17 17 16 15 15 14 13 13 13 13 13 14 14 14 16 17 18 21 23 25 27 29 32 34 35 38 40 38 35 33 32 31 28 26 25 25 26 27 28 31 34 36 37 38 38 37 36
27 27 27 25 22 22 23 22 21 23 24 23 21 21 19 19 19 18 17 17 17 17 17 17 16 15 15 15 15 16 17 18 18 18 17 18 19 18 17 17 16 15 15 14 13 13 13 13 13 15 15 16 17 19 21 22 24 27 29 31 33 34 35 36 37 37 36 35 34 31 27 25 26 26 27 28 30 33 36 38 40 41 42 42 40
27 28 28 26 23 21 22 23 22 23 24 22 21 20 20 19 19 19 18 18 18 18 18 18 17 16 15 15 16 17 18 18 19 18 17 18 19 19 18 17 17 15 15 14 13 13 14 14 14 15 17 18 19 20 22 23 25 28 30 32 34 35 36 36 35 36 36 35 35 31 25 24 27 27 28 30 33 36 39 42 44 44 44 44 42
27 28 28 28 26 22 22 24 24 23 23 23 21 20 20 20 19 19 19 20 20 20 19 19 19 17 16 16 16 17 18 19 19 18 17 18 19 19 18 18 17 16 15 15 14 13 14 15 15 16 19 20 20 20 22 24 26 28 30 33 35 37 38 38 37 36 34 34 34 31 25 24 28 29 30 32 34 38 41 44 45 45 44 43 42
27 28 28 29 28 25 23 23 23 23 23 23 22 21 20 19 19 19 19 20 21 21 21 20 20 20 18 17 17 18 19 19 19 19 18 18 19 20 19 19 18 17 16 16 15 15 15 16 16 17 19 20 21 21 23 25 27 29 31 33 35 37 39 39 38 36 33 33 33 30 25 25 29 31 32 33 36 39 41 43 44 44 43 42 41
29 28 28 29 29 28 26 25 24 24 23 22 21 20 19 18 18 19 20 21 22 23 23 22 22 21 20 18 18 18 19 20 20 19 19 19 20 20 20 20 19 18 18 18 17 17 17 18 19 20 20 21 22 22 24 26 28 30 32 33 35 38 40 40 39 37 35 33 31 29 26 26 29 33 35 36 38 39 42 43 45 46 46 45 44
30 29 28 28 29 30 29 28 26 25 24 24 23 21 19 17 17 19 20 22 23 24 24 24 23 22 20 19 19 19 19 20 20 20 20 20 21 21 22 21 21 20 20 19 19 19 20 20 21 22 22 22 22 23 24 26 29 31 32 34 37 39 40 41 40 38 36 33 30 28 27 26 29 33 35 38 39 41 42 44 46 47 48 48 46
31 30 29 28 29 30 30 30 29 27 26 25 24 24 21 18 18 19 21 23 24 25 25 25 24 23 21 20 20 19 20 20 21 21 21 21 22 23 23 22 22 22 22 21 20 20 20 20 21 21 21 22 23 24 25 27 30 32 33 35 38 39 41 42 41 40 37 33 29 28 28 27 30 32 34 36 40 42 43 45 46 48 48 48 46
32 33 31 29 29 30 30 31 30 29 28 26 25 25 23 20 19 21 22 23 25 26 26 25 25 24 22 21 20 20 20 20 21 21 22 23 23 23 23 23 23 23 22 22 21 20 20 20 20 21 22 23 24 25 27 29 31 33 35 37 39 40 42 42 41 39 36 31 27 27 29 30 32 35 35 36 39 43 44 45 47 48 49 49 47
32 33 32 30 30 30 31 31 30 29 29 28 27 26 24 22 21 21 22 24 26 27 26 26 25 25 23 21 20 20 19 20 21 21 22 23 24 24 24 25 24 24 23 23 23 23 22 21 22 23 24 25 26 27 28 31 33 35 37 38 40 42 43 41 40 38 33 29 27 27 30 32 34 36 38 37 37 40 44 47 48 50 51 50 49
30 32 33 32 32 31 31 31 30 29 29 29 28 27 26 24 23 23 23 25 28 28 27 26 25 25 23 22 21 21 19 19 21 22 23 24 25 25 25 26 26 26 25 24 24 24 24 24 25 26 27 27 27 28 29 31 34 36 38 40 42 43 42 40 39 37 31 28 28 28 30 33 34 36 39 41 41 40 42 46 49 51 52 52 51
Wind_Direction
94 97 96 86 80 81 97 101 100 103 101 101 97 93 95 96 103 105 99 97 100 98 91 89 92 93 91 86 77 65 64 71 73 70 71 71 69 69 70 67 64 61 59 58 58 60 60 60 60 61 62 62 60 59 57 55 55 55 52 48 45 40 35 29 27 25 22 20 17 15 16 16 14 12 9 7 5 1 359 358 355 353 351 349 349
107 114 110 101 97 94 104 106 108 117 114 103 94 96 102 98 96 105 112 110 110 107 100 99 98 94 89 85 81 72 65 73 76 73 73 71 68 69 68 67 65 62 60 59 58 58 59 59 58 57 57 56 56 55 53 53 51 48 43 39 36 33 27 23 20 16 13 12 11 10 10 10 8 7 6 5 3 360 358 356 356 354 354 356 359
104 109 109 106 100 100 112 117 117 115 108 99 99 99 96 99 106 116 124 121 116 108 102 102 98 96 94 88 85 79 70 71 74 72 73 72 65 63 63 64 63 60 58 56 54 53 54 54 53 51 50 49 48 48 48 46 41 36 32 29 27 23 19 16 13 9 6 5 4 3 3 2 2 3 3 2 1 359 358 359 1 4 7 11 13
109 105 98 87 78 83 103 110 104 99 101 103 105 101 96 102 109 116 125 125 119 111 106 103 97 101 102 97 90 82 72 66 71 70 64 66 64 59 57 60 59 55 52 48 46 45 43 43 42 40 41 42 39 38 38 35 32 27 23 21 16 13 11 10 8 4 0 358 356 356 356 356 357 0 1 1 2 2 4 8 13 17 19 19 19
118 116 110 104 93 89 97 97 95 101 112 114 107 104 103 102 99 111 124 124 120 114 109 102 98 102 100 97 92 85 77 65 66 71 67 64 65 63 55 54 53 48 44 38 36 36 34 32 28 26 28 28 25 25 24 22 22 19 17 14 8 6 6 6 5 1 359 356 354 354 355 356 359 2 3 5 8 11 14 18 21 21 21 20 19
119 119 118 118 117 111 109 108 110 118 124 116 108 103 100 100 101 110 120 122 119 112 106 102 99 99 98 98 95 88 85 75 66 65 68 66 61 61 55 48 47 43 40 34 32 34 30 24 17 12 12 13 10 8 7 6 9 11 10 8 7 6 5 5 7 7 6 6 6 6 7 9 11 11 13 15 17 20 21 21 21 20 19 20 20
122 120 117 114 117 118 119 119 120 126 127 116 110 108 107 111 114 116 119 121 115 107 107 110 109 104 101 102 99 93 88 81 72 60 59 62 58 60 57 47 41 38 37 37 37 36 28 20 14 7 5 4 0 358 356 355 359 3 4 7 9 8 8 11 15 17 17 18 19 20 21 22 22 22 22 23 22 22 21 20 19 18 19 20 20
126 124 120 113 116 117 117 116 114 117 120 118 115 113 111 114 117 120 123 121 115 109 108 112 113 113 111 107 100 96 90 84 81 70 60 57 55 59 57 46 39 33 29 35 38 31 22 16 13 10 8 5 360 357 355 355 358 2 5 9 10 11 16 20 21 24 25 26 27 27 28 29 28 28 28 26 24 22 21 20 19 19 21 22 22
131 128 121 114 115 116 115 112 109 109 111 112 113 108 101 107 115 119 122 119 116 113 111 111 115 119 118 109 102 99 97 93 89 80 71 61 57 59 55 45 43 37 26 27 31 27 18 10 11 12 12 9 6 4 1 360 1 5 11 14 18 22 24 26 27 30 30 30 30 31 31 32 33 33 32 28 25 23 22 22 22 23 26 27 25
132 124 116 113 112 111 110 101 98 101 105 109 110 100 94 97 106 113 118 119 116 115 116 116 116 121 121 114 107 104 103 102 98 87 75 67 62 62 57 49 47 43 37 28 23 23 15 7 10 17 15 14 17 19 19 19 18 20 26 29 32 33 31 32 33 34 33 34 35 36 37 37 38 37 36 33 30 29 28 27 29 31 32 32 29
127 116 114 116 109 106 104 94 94 104 108 102 96 92 93 95 98 107 115 115 113 113 117 121 121 125 125 120 114 112 114 112 107 98 85 73 69 67 62 56 48 43 45 39 18 13 13 11 18 23 19 17 22 29 32 36 38 40 42 44 44 42 40 40 39 40 40 42 43 44 45 45 45 45 44 43 42 41 40 39 39 40 39 37 34
125 115 112 112 106 102 100 94 91 98 103 99 92 89 93 98 102 110 113 109 108 112 116 122 127 129 127 123 122 122 125 124 117 113 101 82 75 71 66 61 52 41 40 38 16 4 11 17 28 29 21 20 25 29 37 43 46 50 53 53 53 52 51 51 51 52 52 53 55 56 56 55 54 54 53 53 52 51 50 48 48 47 46 43 39
131 119 112 110 108 98 94 95 94 95 103 107 101 94 92 96 103 106 107 106 106 112 116 120 124 126 126 127 128 128 130 130 122 117 105 81 67 63 64 62 54 43 36 28 9 4 14 17 25 30 25 29 36 35 42 51 56 61 63 63 63 63 64 65 65 65 64 65 65 64 63 62 60 60 59 59 57 56 55 54 52 51 50 48 44
139 127 118 115 109 96 90 94 100 103 106 103 98 97 94 93 97 98 103 107 108 111 114 117 121 126 130 130 128 124 125 130 121 111 102 87 69 58 58 57 48 40 34 27 5 359 12 17 20 28 37 41 48 52 57 67 71 73 73 74 75 76 76 77 76 74 73 71 70 68 66 64 63 62 61 60 58 56 55 54 53 52 50 48 45
143 133 124 114 103 95 92 94 99 103 103 97 95 93 88 86 88 95 103 106 109 114 114 116 121 129 131 127 123 120 121 122 110 98 85 83 81 66 56 52 42 28 18 15 6 4 17 24 23 32 54 67 69 72 74 78 79 80 83 85 85 86 85 83 81 78 75 72 70 68 65 62 60 59 57 56 54 51 50 48 46 45 43 42 41
146 138 127 116 107 101 98 98 99 100 101 100 95 90 84 85 86 90 98 103 109 114 113 114 119 124 122 120 121 119 117 113 103 98 79 68 78 69 47 39 37 21 6 4 7 15 22 26 34 46 65 81 88 89 87 87 88 89 91 90 89 88 85 83 80 76 72 68 65 61 57 53 50 48 47 45 43 41 40 38 36 35 33 32 32
153 146 137 128 119 111 107 105 101 99 101 95 87 86 85 85 85 86 95 109 114 112 110 111 112 114 113 112 109 97 99 102 98 96 84 61 80 74 41 23 23 14 2 6 18 27 34 38 51 66 77 88 92 94 96 96 97 96 93 90 87 84 81 78 75 70 65 59 54 50 45 41 38 36 35 33 32 31 29 27 26 24 23 22 22
162 156 147 141 133 124 121 113 106 104 103 97 89 90 91 88 85 86 96 109 109 104 102 104 105 106 106 107 103 88 86 91 86 81 73 63 81 88 63 38 29 37 18 19 47 52 57 65 74 81 89 96 97 98 99 99 97 92 89 86 82 78 74 70 66 61 55 48 43 39 35 33 30 29 27 25 23 21 20 18 17 15 13 12 12
170 163 156 151 144 138 132 121 113 108 105 105 105 99 94 91 87 88 96 100 97 94 93 95 98 99 98 102 104 99 91 89 88 83 72 64 63 83 72 45 32 53 47 55 84 81 77 85 92 96 99 102 102 102 100 96 92 88 84 80 75 70 65 60 55 50 44 39 35 32 30 28 25 24 21 19 18 15 13 12 10 9 7 6 4
176 168 166 161 153 149 145 137 126 115 107 106 107 101 91 88 89 91 94 94 95 96 94 96 99 96 93 94 97 102 101 95 99 95 81 76 75 77 66 40 29 35 33 43 67 75 80 87 94 101 106 106 104 101 97 92 87 82 77 72 67 61 56 51 45 41 36 31 28 25 23 21 19 17 15 13 12 10 8 6 4 3 1 0 359
183 176 175 169 162 160 157 152 145 130 119 112 110 110 105 97 95 95 92 89 93 98 101 102 99 96 95 95 94 97 96 94 105 103 89 93 90 80 67 43 41 28 19 39 55 65 83 95 100 107 109 107 102 97 92 87 82 75 69 63 58 53 48 42 36 31 27 23 19 17 15 13 11 9 8 7 5 3 2 360 358 356 355 354 353
189 187 183 178 175 172 169 165 161 152 138 126 122 122 122 119 111 104 97 91 91 93 99 99 93 92 95 96 96 95 93 93 100 102 92 87 84 88 96 82 66 57 53 65 76 81 95 106 108 110 108 103 98 94 90 82 74 67 61 56 50 44 37 31 26 21 17 14 11 9 7 5 4 2 1 0 358 357 355 353 352 350 348 348 347
191 193 192 189 187 185 183 178 173 170 162 146 140 140 141 142 138 131 114 104 102 97 98 101 98 96 97 95 96 95 95 97 99 99 92 83 72 83 101 98 77 76 80 82 93 98 105 111 111 110 105 100 96 91 84 75 66 59 52 45 37 31 25 20 15 11 8 5 3 2 1 359 358 357 356 354 353 351 350 348 346 345 343 342 341
196 196 197 197 196 195 195 191 186 185 183 175 165 158 159 162 163 163 147 127 119 107 101 104 103 103 103 99 98 97 95 97 103 104 96 88 83 79 96 105 98 95 94 96 106 111 115 115 111 107 102 97 92 82 72 62 54 45 36 28 22 17 12 9 5 3 1 359 358 356 355 354 352 351 350 350 348 346 345 343 341 340 338 337 337
206 203 203 203 202 201 203 201 198 198 196 196 194 184 178 180 182 186 184 166 145 127 113 107 107 108 107 103 101 99 95 95 103 109 106 105 104 98 101 106 108 112 111 111 115 118 119 116 110 105 100 93 83 70 58 46 35 27 20 13 9 5 2 359 357 356 355 354 353 351 350 348 347 346 346 348 347 344 344 344 342 340 335 331 334
213 212 212 210 207 205 207 207 206 207 206 205 208 204 199 198 196 200 202 196 179 160 134 114 112 114 112 110 107 107 105 106 110 111 116 118 115 112 108 108 112 118 120 120 121 121 120 115 108 102 96 84 71 56 41 29 18 12 7 1 358 355 354 353 352 351 350 348 348 347 346 345 344 343 342 345 345 341 341 341 341 341 336 331 333
218 218 219 218 213 208 209 212 212 214 214 213 215 216 216 213 209 210 213 212 204 191 168 140 128 125 126 125 124 121 118 119 116 111 113 111 110 112 112 114 120 122 124 125 124 124 122 116 110 103 89 68 49 33 20 10 3 357 354 351 350 348 348 347 347 346 345 345 346 345 345 344 343 341 340 339 340 338 336 335 334 334 333 331 331
223 223 223 223 221 216 212 213 216 219 219 219 221 224 227 226 222 221 224 224 217 208 199 181 161 150 145 141 138 136 128 123 122 118 113 112 115 118 119 121 124 126 126 124 121 119 118 114 106 95 76 48 23 9 357 351 348 346 345 344 345 345 344 344 345 345 345 346 347 347 347 346 344 342 340 338 338 337 335 332 330 329 328 327 326
226 226 226 225 225 223 219 217 217 220 223 225 227 228 230 233 232 233 234 232 226 218 214 210 203 192 175 160 156 157 149 140 137 130 124 124 127 125 125 127 126 127 126 122 120 117 111 104 89 69 42 15 358 348 342 340 339 338 339 340 340 341 342 345 347 347 348 349 348 347 346 345 343 341 339 337 336 335 334 332 331 330 329 327 326
229 229 228 227 226 226 224 222 221 221 224 228 231 232 232 235 237 239 240 238 234 227 220 220 221 216 203 188 180 178 170 159 149 142 137 135 135 130 128 129 126 128 128 120 116 109 81 25 10 7 352 343 339 336 334 334 334 335 337 339 341 343 346 349 352 352 352 351 349 347 344 342 340 339 338 337 336 336 336 337 337 336 336 334 333
233 233 230 226 227 228 227 226 225 223 224 227 229 231 234 238 240 241 242 242 239 235 229 226 226 225 221 212 203 194 184 175 165 159 155 148 144 140 134 131 130 134 137 125 89 356 339 329 327 330 333 335 335 335 334 335 337 339 342 344 346 348 350 351 352 352 351 349 346 344 342 340 339 338 338 338 339 341 342 345 346 345 344 342 339
235 237 235 228 224 228 230 229 228 225 225 228 229 230 234 240 244 244 243 242 240 240 238 235 231 228 227 227 222 213 203 194 186 181 180 176 174 175 174 178 181 181 190 215 324 322 313 317 327 330 331 334 336 336 336 337 339 340 342 344 345 347 348 348 348 348 346 343 342 340 339 338 338 338 339 340 343 346 348 350 350 349 347 343 340
234 237 240 234 225 226 230 230 229 227 226 229 231 231 233 238 244 247 245 241 239 241 241 240 238 234 231 233 233 230 226 219 212 210 208 204 209 219 224 227 226 230 249 268 292 308 310 316 325 328 327 327 329 328 328 330 333 334 337 340 342 344 345 346 346 344 341 340 340 339 338 339 341 342 343 346 349 351 351 351 349 347 344 340 336
234 236 240 240 231 227 230 231 231 229 227 229 233 233 232 236 243 250 252 248 244 243 242 242 241 238 236 236 237 237 237 235 231 233 236 231 231 240 244 243 243 252 264 274 284 290 298 306 314 318 318 319 321 322 323 326 330 333 336 340 342 343 343 343 344 343 342 341 341 341 342 346 351 352 353 354 354 353 352 350 347 345 342 337 333
236 237 239 240 235 231 232 232 232 231 228 228 233 235 234 238 247 253 257 255 250 246 245 245 243 241 239 239 240 241 241 242 241 241 245 248 249 251 254 256 260 268 275 282 289 293 295 300 306 311 313 316 319 322 324 328 331 333 335 338 340 341 342 342 343 344 344 342 342 344 348 354 356 356 356 355 354 353 351 349 348 346 342 338 333
236 237 238 238 236 234 233 232 231 232 231 228 232 237 237 241 250 256 258 257 255 252 249 248 246 244 243 241 242 244 245 245 246 246 247 250 255 258 261 268 273 278 285 291 296 300 301 305 309 312 314 317 320 322 322 325 328 330 333 338 340 342 343 344 344 345 345 344 345 347 351 355 356 355 353 351 350 350 350 350 349 347 344 340 335
235 237 236 236 236 235 235 234 232 233 234 231 230 236 240 243 249 256 259 258 257 256 255 255 251 246 245 243 242 244 246 248 249 251 253 253 258 262 265 270 275 279 285 291 296 300 302 305 310 314 318 319 320 322 322 324 330 335 338 341 343 344 344 344 345 345 344 344 345 347 349 352 354 353 350 348 348 349 350 351 350 349 347 343 339
236 238 237 235 236 237 236 236 234 232 234 234 231 233 238 242 247 251 255 258 260 259 257 258 257 251 246 244 243 244 246 248 250 252 255 257 260 263 266 270 274 277 282 286 290 294 298 303 309 314 318 319 322 326 329 332 338 341 341 341 344 346 345 344 344 344 344 344 344 345 347 348 348 347 346 347 348 349 350 351 351 350 349 347 343
235 239 240 236 236 239 238 236 235 232 232 234 233 231 235 241 245 246 249 255 260 261 260 260 260 256 249 244 243 244 246 249 251 253 255 257 259 262 265 268 271 275 280 285 289 293 298 304 311 316 319 323 327 330 334 336 338 342 342 341 343 345 344 342 343 343 343 343 341 341 343 345 344 343 345 346 346 347 350 351 352 352 351 349 346
233 238 242 239 235 237 238 236 235 234 232 232 233 232 233 239 243 242 245 252 257 259 260 261 261 259 253 247 243 243 246 248 251 253 255 257 258 260 263 266 269 273 277 282 286 291 298 304 313 318 320 325 326 326 331 335 337 342 344 340 340 342 342 341 340 340 341 341 339 338 339 340 340 341 343 344 344 345 348 350 351 352 352 351 348
229 236 241 241 235 234 237 236 233 234 233 231 232 233 232 235 240 241 243 249 254 257 257 257 260 261 257 252 246 244 245 248 250 253 256 259 260 260 262 263 266 270 273 276 281 288 296 303 312 317 318 321 323 325 332 338 339 341 341 337 336 339 340 339 338 337 338 339 337 336 337 336 336 339 341 342 342 343 345 348 349 351 352 352 351
226 231 237 241 237 233 235 234 230 231 233 232 231 233 232 231 235 240 244 246 250 253 256 256 257 259 259 256 251 247 246 247 249 250 252 256 259 259 260 262 263 265 266 270 277 285 293 302 311 315 317 322 325 328 333 336 336 336 335 333 333 335 337 337 336 335 335 335 335 336 336 333 333 338 341 339 340 341 343 346 348 350 352 353 352
224 227 233 239 240 235 233 234 231 230 233 234 231 230 230 229 231 237 244 248 247 249 253 256 257 257 258 257 252 248 248 249 250 250 248 250 254 257 259 261 261 261 262 265 271 281 292 301 309 316 320 322 324 326 329 330 330 330 329 328 329 331 334 334 334 334 334 333 332 334 335 331 331 336 338 337 338 340 343 346 348 351 352 351 350
226 226 229 235 239 237 233 233 235 233 233 234 232 229 229 230 231 233 240 246 248 247 249 253 256 257 256 255 253 248 247 248 250 251 248 247 250 254 255 257 257 259 264 267 272 282 294 301 307 316 320 318 319 322 324 324 324 324 324 325 326 328 330 331 333 335 335 332 330 331 333 331 330 332 335 336 338 341 344 346 347 349 350 349 348
231 227 228 232 237 239 237 234 235 237 236 235 234 231 230 232 233 234 236 241 246 248 249 250 253 255 255 254 252 249 247 248 248 248 247 246 248 250 251 252 253 258 264 269 276 285 294 300 306 314 316 313 314 318 319 318 319 321 322 322 323 324 326 329 333 335 334 332 329 327 330 331 329 330 333 336 340 343 344 344 344 345 346 347 346
234 230 228 229 234 238 240 238 236 237 239 239 239 237 234 233 234 236 237 240 243 246 249 250 250 251 252 253 252 249 248 249 249 247 246 245 245 245 246 248 252 257 262 268 278 288 294 301 305 308 309 308 309 312 313 314 316 318 319 319 320 322 326 330 333 333 334 332 327 324 328 331 329 329 333 336 340 342 341 342 342 342 343 345 346
235 234 230 229 232 235 239 242 241 238 238 240 242 242 240 235 234 238 240 242 244 245 247 250 251 250 250 251 253 250 247 247 248 248 247 244 243 242 243 246 250 256 261 267 276 283 290 296 298 298 301 304 305 306 309 311 313 314 316 317 319 323 327 330 331 331 332 330 324 322 327 329 327 329 333 336 337 339 339 340 340 340 341 344 345
234 235 233 230 231 234 237 241 242 241 239 239 241 243 243 238 236 238 240 243 246 247 248 250 252 252 249 249 251 251 247 245 246 247 246 244 243 243 245 247 251 255 259 264 269 274 280 286 288 292 297 300 301 303 306 308 310 312 314 316 319 324 328 330 329 329 329 327 322 321 322 323 325 328 332 335 335 336 337 338 338 339 340 342 343
234 235 234 231 231 232 234 237 240 242 242 241 241 244 245 242 238 238 239 242 246 249 250 251 253 253 250 248 249 250 248 244 243 244 245 245 244 245 248 252 254 257 260 266 271 276 280 283 286 292 297 298 299 301 306 308 310 312 315 318 321 324 327 327 326 326 325 322 319 318 319 323 328 329 330 334 335 334 334 335 336 336 338 340 341
237 237 235 234 233 233 234 236 238 241 244 244 244 245 247 246 242 239 239 243 247 250 251 251 251 252 250 247 248 249 247 244 242 242 242 244 246 248 250 254 257 258 262 267 273 279 283 287 291 295 296 297 299 303 307 309 310 312 315 318 320 323 325 324 323 323 321 317 316 319 321 325 329 328 327 331 333 333 332 332 334 335 336 339 340
239 239 237 236 235 234 235 237 238 239 242 245 245 245 245 245 244 240 238 242 247 250 251 252 251 250 248 246 246 247 248 246 244 242 242 244 247 249 252 255 256 258 262 267 272 277 281 286 291 294 295 296 299 303 306 308 309 310 313 316 319 321 321 320 321 321 319 315 317 320 322 324 325 326 326 328 329 331 331 331 333 334 336 338 339
Height
3229 3229 3229 3229 3230 3231 3231 3231 3231 3232 3232 3233 3232 3232 3233 3233 3233 3234 3234 3233 3234 3235 3235 3236 3236 3237 3237 3237 3236 3236 3236 3237 3237 3237 3237 3238 3238 3238 3238 3238 3238 3238 3238 3238 3238 3238 3238 3238 3238 3238 3238 3238 3238 3238 3237 3237 3237 3237 3237 3236 3236 3236 3235 3235 3234 3234 3233 3232 3232 3231 3230 3230 3229 3228 3228 3227 3226 3225 3225 3224 3223 3222 3221 3220 3219
3230 3230 3230 3230 3232 3232 3232 3232 3232 3233 3233 3233 3233 3233 3234 3234 3234 3235 3235 3235 3235 3236 3236 3237 3237 3237 3237 3237 3237 3237 3237 3237 3238 3238 3238 3238 3238 3238 3238 3238 3238 3239 3239 3239 3239 3239 3239 3239 3238 3238 3238 3238 3238 3238 3238 3238 3238 3237 3237 3237 3236 3236 3236 3235 3235 3234 3233 3233 3232 3231 3231 3230 3229 3228 3228 3227 3226 3225 3225 3224 3223 3222 3221 3220 3219
3231 3231 3231 3231 3232 3233 3233 3233 3234 3234 3233 3233 3234 3234 3235 3235 3235 3236 3236 3236 3236 3237 3237 3237 3238 3238 3238 3238 3238 3238 3238 3238 3238 3238 3239 3239 3239 3239 3239 3239 3239 3239 3239 3239 3239 3239 3239 3239 3239 3239 3239 3239 3239 3238 3238 3238 3238 3238 3237 3237 3237 3237 3236 3236 3235 3234 3233 3233 3232 3231 3231 3230 3229 3229 3228 3227 3226 3225 3225 3224 3223 3222 3221 3220 3219
3231 3232 3232 3231 3231 3232 3233 3233 3234 3234 3233 3234 3234 3235 3235 3236 3236 3236 3236 3236 3237 3237 3237 3238 3238 3238 3238 3239 3239 3239 3238 3238 3239 3239 3239 3239 3239 3240 3240 3239 3239 3239 3240 3240 3240 3240 3240 3240 3240 3240 3239 3239 3239 3239 3239 3239 3238 3238 3238 3238 3237 3237 3236 3236 3235 3234 3234 3233 3232 3231 3231 3230 3229 3229 3228 3227 3226 3225 3225 3224 3223 3222 3221 3220 3219
3232 3233 3233 3232 3232 3233 3233 3233 3233 3234 3234 3235 3235 3235 3236 3236 3236 3236 3237 3237 3237 3237 3238 3238 3238 3239 3238 3239 3239 3239 3239 3239 3239 3240 3240 3240 3240 3240 3240 3240 3240 3240 3240 3240 3240 3241 3240 3240 3240 3240 3240 3239 3239 3239 3239 3239 3239 3239 3238 3238 3238 3237 3237 3236 3235 3235 3234 3233 3232 3231 3231 3230 3229 3229 3228 3227 3226 3226 3225 3224 3223 3222 3221 3220 3219
3233 3233 3233 3233 3233 3233 3234 3234 3235 3235 3235 3236 3236 3236 3236 3237 3237 3237 3237 3237 3238 3238 3238 3239 3239 3239 3239 3239 3239 3240 3240 3240 3240 3240 3240 3240 3240 3240 3240 3240 3240 3241 3241 3241 3241 3241 3241 3241 3241 3240 3240 3239 3239 3239 3239 3239 3239 3239 3239 3238 3238 3237 3237 3236 3236 3235 3234 3233 3232 3232 3231 3230 3230 3229 3228 3227 3226 3226 3225 3224 3223 3222 3221 3220 3219
3233 3234 3234 3234 3234 3234 3234 3235 3235 3236 3236 3236 3237 3237 3237 3238 3237 3237 3238 3238 3238 3238 3239 3239 3239 3239 3239 3240 3240 3240 3240 3240 3240 3240 3240 3240 3240 3240 3240 3240 3241 3241 3241 3241 3242 3242 3241 3241 3241 3240 3240 3240 3239 3239 3239 3239 3239 3239 3238 3238 3238 3237 3237 3237 3236 3235 3234 3233 3233 3232 3231 3230 3230 3229 3228 3227 3226 3225 3225 3223 3222 3222 3221 3220 3219
3234 3234 3234 3234 3235 3235 3235 3236 3236 3236 3236 3237 3237 3238 3238 3238 3238 3238 3238 3238 3238 3239 3239 3240 3240 3240 3240 3240 3240 3240 3240 3241 3241 3241 3241 3241 3241 3241 3241 3241 3241 3241 3242 3242 3242 3242 3242 3241 3241 3240 3240 3240 3240 3239 3239 3239 3239 3239 3238 3238 3238 3238 3238 3237 3236 3236 3235 3234 3233 3232 3232 3231 3230 3229 3228 3227 3226 3225 3224 3223 3222 3222 3221 3220 3219
3234 3234 3235 3235 3235 3236 3236 3236 3236 3237 3237 3237 3238 3238 3238 3238 3238 3238 3239 3239 3239 3239 3240 3240 3240 3241 3241 3241 3241 3241 3241 3241 3242 3242 3242 3241 3241 3241 3241 3241 3241 3242 3242 3242 3242 3242 3242 3241 3241 3241 3240 3240 3240 3240 3240 3239 3239 3239 3239 3239 3238 3238 3238 3238 3237 3236 3235 3235 3234 3233 3232 3231 3231 3230 3229 3228 3227 3226 3225 3224 3223 3222 3221 3220 3219
3234 3234 3235 3235 3236 3236 3236 3236 3237 3238 3238 3238 3238 3238 3238 3238 3238 3238 3239 3239 3239 3240 3240 3240 3241 3241 3241 3241 3241 3242 3242 3242 3242 3242 3242 3242 3242 3242 3242 3242 3242 3242 3242 3242 3242 3242 3242 3242 3241 3241 3241 3241 3240 3240 3240 3240 3239 3239 3239 3239 3239 3239 3239 3238 3238 3237 3236 3236 3235 3234 3233 3232 3231 3230 3229 3228 3227 3226 3225 3224 3223 3222 3221 3221 3220
3234 3234 3235 3235 3236 3237 3237 3237 3237 3238 3239 3239 3239 3239 3238 3238 3238 3238 3239 3239 3240 3240 3241 3241 3241 3241 3241 3241 3242 3242 3242 3243 3243 3243 3243 3243 3243 3243 3243 3243 3242 3243 3243 3243 3242 3242 3242 3242 3242 3242 3242 3241 3241 3241 3240 3240 3240 3240 3240 3240 3240 3240 3240 3239 3238 3238 3237 3237 3236 3235 3234 3233 3233 3232 3231 3230 3229 3227 3226 3225 3224 3223 3222 3221 3220
3234 3234 3235 3235 3236 3237 3238 3238 3238 3238 3239 3239 3239 3239 3239 3238 3238 3239 3239 3239 3240 3240 3241 3241 3241 3241 3242 3242 3242 3243 3243 3243 3243 3243 3244 3244 3244 3244 3244 3243 3243 3243 3243 3243 3242 3242 3242 3243 3243 3243 3242 3242 3242 3241 3241 3241 3241 3241 3241 3241 3241 3241 3240 3240 3240 3239 3238 3238 3237 3236 3236 3235 3234 3233 3232 3231 3230 3229 3227 3226 3225 3224 3223 3222 3221
3234 3234 3235 3236 3236 3237 3238 3238 3237 3238 3239 3239 3239 3239 3239 3239 3239 3239 3240 3240 3240 3241 3241 3241 3241 3242 3242 3242 3243 3243 3243 3244 3244 3244 3244 3244 3244 3244 3244 3244 3244 3244 3243 3243 3243 3242 3243 3243 3243 3243 3243 3243 3242 3242 3242 3242 3242 3242 3242 3242 3242 3242 3241 3241 3241 3240 3240 3239 3238 3238 3237 3236 3235 3234 3233 3232 3231 3230 3229 3228 3227 3225 3224 3223 3222
3234 3234 3235 3236 3236 3237 3237 3237 3237 3238 3239 3239 3239 3240 3240 3240 3240 3240 3240 3240 3241 3241 3241 3242 3242 3242 3243 3243 3243 3243 3244 3244 3244 3244 3244 3244 3244 3244 3244 3244 3244 3244 3244 3244 3244 3243 3244 3244 3244 3243 3243 3243 3243 3243 3243 3243 3243 3243 3243 3243 3243 3243 3242 3242 3242 3241 3241 3240 3240 3239 3238 3237 3236 3235 3234 3233 3232 3231 3230 3229 3228 3227 3226 3224 3223
3233 3234 3235 3236 3236 3237 3237 3237 3238 3238 3239 3239 3240 3240 3240 3240 3240 3241 3241 3241 3241 3241 3242 3242 3243 3243 3243 3243 3244 3244 3244 3244 3244 3245 3245 3245 3245 3245 3245 3245 3245 3244 3244 3244 3244 3244 3244 3244 3244 3244 3244 3244 3244 3244 3244 3244 3244 3244 3244 3244 3244 3244 3243 3243 3243 3242 3242 3241 3241 3240 3239 3238 3237 3236 3235 3235 3234 3233 3231 3230 3229 3228 3227 3226 3224
3233 3234 3235 3235 3236 3237 3237 3237 3238 3239 3239 3239 3240 3240 3240 3240 3241 3241 3241 3241 3242 3242 3242 3242 3243 3243 3244 3244 3244 3244 3244 3245 3245 3245 3245 3245 3245 3245 3245 3245 3245 3245 3245 3245 3245 3245 3245 3245 3245 3244 3244 3245 3245 3245 3245 3245 3245 3245 3245 3245 3245 3245 3245 3245 3244 3244 3243 3243 3242 3241 3240 3240 3239 3238 3237 3236 3235 3234 3233 3232 3230 3229 3228 3227 3225
3233 3234 3235 3235 3236 3237 3238 3238 3238 3239 3239 3239 3240 3240 3241 3241 3242 3242 3242 3242 3242 3242 3242 3243 3243 3244 3244 3244 3245 3245 3245 3245 3245 3245 3245 3245 3245 3245 3245 3246 3245 3245 3245 3245 3245 3246 3246 3246 3245 3245 3246 3246 3246 3246 3246 3247 3247 3247 3247 3247 3247 3246 3246 3246 3246 3245 3245 3244 3243 3242 3242 3241 3240 3239 3238 3237 3236 3235 3233 3232 3231 3230 3229 3227 3226
3233 3234 3235 3236 3237 3237 3238 3239 3239 3239 3240 3240 3240 3241 3241 3241 3242 3243 3243 3242 3242 3242 3242 3243 3244 3244 3244 3245 3245 3245 3245 3245 3246 3245 3245 3245 3245 3246 3246 3246 3246 3246 3246 3246 3246 3246 3246 3247 3246 3247 3247 3247 3247 3248 3248 3248 3248 3248 3248 3248 3248 3248 3248 3247 3247 3246 3246 3245 3244 3243 3243 3242 3241 3240 3238 3237 3236 3235 3234 3233 3231 3230 3229 3227 3226
3233 3234 3235 3236 3237 3237 3238 3239 3239 3240 3240 3241 3241 3241 3242 3242 3242 3243 3243 3243 3243 3243 3243 3243 3244 3244 3245 3245 3245 3245 3245 3246 3246 3246 3246 3246 3246 3246 3246 3246 3246 3246 3246 3247 3247 3247 3247 3247 3247 3248 3248 3249 3249 3249 3249 3249 3250 3250 3250 3250 3250 3249 3249 3248 3248 3247 3246 3246 3245 3244 3243 3242 3241 3240 3239 3238 3237 3236 3234 3233 3232 3230 3229 3227 3226
3233 3234 3235 3236 3237 3237 3238 3239 3240 3240 3240 3241 3241 3242 3242 3242 3243 3243 3243 3243 3243 3244 3244 3244 3245 3245 3245 3245 3245 3246 3246 3246 3246 3246 3247 3247 3247 3247 3247 3248 3247 3247 3247 3247 3247 3248 3248 3248 3248 3249 3250 3250 3250 3250 3251 3251 3251 3251 3251 3251 3251 3250 3250 3249 3248 3248 3247 3246 3246 3245 3244 3243 3242 3241 3240 3239 3238 3236 3235 3233 3232 3230 3229 3227 3226
3232 3233 3234 3235 3236 3237 3238 3239 3240 3240 3241 3241 3242 3242 3243 3243 3243 3244 3244 3244 3244 3244 3244 3245 3245 3245 3246 3246 3246 3246 3246 3246 3247 3247 3247 3248 3248 3248 3248 3249 3249 3249 3249 3249 3249 3249 3249 3249 3250 3250 3251 3251 3251 3252 3252 3253 3253 3253 3253 3252 3252 3251 3250 3250 3249 3248 3248 3247 3246 3245 3244 3243 3242 3241 3240 3239 3238 3236 3235 3233 3232 3230 3229 3227 3226
3231 3232 3234 3235 3236 3237 3238 3239 3240 3240 3241 3241 3242 3242 3243 3243 3244 3244 3244 3244 3245 3245 3245 3245 3245 3246 3246 3246 3247 3247 3247 3247 3247 3247 3248 3248 3248 3248 3249 3249 3250 3250 3250 3250 3250 3250 3251 3251 3251 3252 3252 3252 3253 3253 3254 3254 3254 3254 3253 3253 3252 3252 3251 3250 3250 3249 3248 3247 3247 3246 3245 3244 3243 3241 3240 3239 3238 3236 3235 3233 3232 3230 3229 3227 3226
3230 3232 3233 3234 3235 3236 3237 3238 3239 3240 3241 3241 3242 3242 3243 3243 3244 3244 3245 3245 3245 3245 3246 3246 3246 3246 3247 3247 3247 3247 3248 3248 3248 3248 3248 3249 3249 3249 3249 3249 3250 3250 3251 3251 3251 3251 3252 3252 3252 3253 3253 3253 3254 3254 3255 3255 3255 3255 3254 3254 3253 3252 3252 3251 3250 3249 3249 3248 3247 3246 3245 3244 3242 3241 3240 3238 3237 3236 3234 3233 3231 3230 3228 3227 3225
3230 3231 3232 3233 3235 3236 3237 3238 3239 3239 3240 3241 3242 3242 3243 3243 3244 3244 3245 3246 3246 3246 3246 3246 3247 3247 3247 3248 3248 3248 3248 3248 3249 3249 3249 3249 3249 3250 3250 3250 3250 3251 3251 3252 3252 3252 3253 3253 3254 3254 3254 3255 3255 3255 3255 3255 3255 3255 3255 3254 3253 3253 3252 3251 3250 3250 3249 3248 3247 3246 3244 3243 3242 3241 3239 3238 3237 3235 3233 3231 3230 3228 3227 3226 3225
3229 3230 3231 3233 3234 3235 3236 3237 3238 3239 3240 3240 3241 3242 3242 3243 3244 3244 3245 3246 3246 3246 3247 3247 3247 3248 3248 3248 3248 3248 3249 3249 3249 3249 3250 3250 3250 3250 3251 3251 3251 3252 3252 3252 3253 3253 3254 3254 3254 3255 3255 3256 3256 3256 3256 3256 3256 3255 3255 3254 3253 3253 3252 3251 3250 3250 3249 3248 3247 3245 3244 3243 3241 3240 3239 3238 3236 3233 3232 3230 3228 3227 3226 3224 3222
3228 3229 3230 3232 3233 3235 3236 3237 3237 3238 3239 3240 3241 3241 3242 3243 3243 3244 3245 3246 3246 3247 3247 3248 3248 3248 3249 3249 3249 3249 3249 3250 3250 3250 3250 3251 3251 3251 3251 3252 3252 3253 3253 3253 3254 3254 3255 3255 3255 3256 3256 3256 3256 3257 3257 3256 3256 3256 3255 3255 3254 3253 3252 3251 3250 3249 3248 3247 3246 3245 3243 3242 3240 3239 3238 3237 3235 3233 3231 3229 3228 3226 3224 3222 3220
3227 3228 3230 3231 3232 3234 3235 3236 3237 3238 3238 3239 3240 3241 3242 3242 3243 3244 3244 3245 3246 3247 3248 3248 3248 3249 3249 3249 3249 3250 3250 3250 3250 3251 3251 3251 3252 3252 3252 3253 3254 3254 3254 3255 3255 3255 3255 3256 3256 3256 3257 3257 3257 3257 3257 3257 3256 3256 3255 3255 3254 3253 3252 3251 3250 3249 3248 3247 3246 3244 3243 3241 3240 3238 3237 3235 3234 3232 3230 3228 3227 3225 3223 3221 3219
3226 3227 3228 3230 3231 3232 3234 3235 3236 3237 3238 3239 3240 3240 3241 3242 3243 3243 3244 3245 3246 3247 3247 3248 3249 3249 3249 3250 3250 3250 3251 3251 3251 3251 3252 3252 3253 3253 3253 3254 3254 3255 3255 3256 3256 3256 3256 3256 3256 3257 3257 3257 3257 3257 3257 3256 3256 3255 3255 3254 3254 3253 3252 3251 3250 3248 3247 3245 3244 3243 3242 3240 3238 3237 3235 3233 3232 3230 3228 3227 3225 3223 3221 3220 3218
3224 3226 3227 3229 3230 3231 3233 3234 3235 3236 3237 3238 3239 3240 3241 3241 3242 3243 3243 3244 3245 3246 3247 3248 3248 3249 3249 3250 3250 3251 3251 3251 3252 3252 3252 3253 3253 3254 3254 3254 3255 3255 3256 3256 3256 3257 3257 3257 3257 3257 3257 3257 3257 3257 3256 3256 3255 3255 3254 3253 3253 3252 3251 3251 3250 3248 3246 3245 3243 3242 3240 3238 3237 3235 3233 3231 3230 3228 3226 3224 3222 3221 3219 3217 3216
3223 3224 3226 3227 3229 3230 3231 3233 3234 3235 3236 3237 3238 3239 3240 3241 3241 3242 3242 3243 3244 3245 3246 3247 3248 3248 3249 3250 3250 3251 3251 3252 3252 3252 3253 3253 3254 3254 3254 3255 3255 3255 3256 3256 3256 3257 3257 3257 3257 3257 3257 3257 3256 3256 3256 3255 3255 3254 3253 3252 3252 3250 3249 3248 3247 3246 3245 3243 3242 3240 3238 3236 3234 3232 3231 3229 3227 3225 3224 3222 3220 3218 3217 3215 3213
3221 3222 3224 3226 3227 3229 3230 3231 3233 3234 3235 3236 3237 3238 3239 3240 3241 3241 3242 3242 3243 3244 3245 3246 3247 3248 3249 3250 3250 3251 3251 3252 3252 3253 3253 3253 3254 3254 3254 3255 3255 3255 3256 3256 3256 3257 3257 3257 3257 3257 3256 3256 3255 3255 3254 3254 3253 3252 3251 3250 3249 3248 3246 3245 3244 3243 3242 3240 3239 3237 3235 3233 3232 3230 3228 3226 3225 3223 3221 3220 3218 3217 3215 3213 3211
3219 3220 3222 3224 3226 3227 3228 3230 3231 3232 3234 3235 3236 3237 3238 3239 3240 3240 3241 3242 3242 3243 3244 3245 3246 3247 3248 3249 3250 3250 3251 3252 3252 3253 3253 3253 3254 3254 3254 3255 3255 3255 3255 3256 3256 3256 3256 3257 3257 3256 3256 3255 3254 3253 3252 3251 3250 3249 3248 3248 3247 3246 3246 3245 3244 3242 3241 3239 3237 3235 3233 3231 3230 3228 3226 3225 3223 3222 3220 3219 3217 3215 3213 3211 3209
3217 3218 3219 3221 3224 3225 3227 3228 3229 3231 3232 3234 3235 3236 3237 3238 3239 3239 3240 3241 3241 3242 3243 3244 3245 3246 3247 3248 3248 3249 3250 3251 3252 3252 3253 3253 3253 3254 3254 3254 3255 3255 3255 3256 3256 3256 3256 3256 3256 3256 3255 3254 3254 3253 3252 3251 3250 3249 3248 3247 3246 3245 3245 3244 3243 3242 3240 3238 3236 3234 3232 3230 3229 3227 3226 3224 3222 3220 3219 3217 3216 3214 3212 3210 3207
3214 3216 3217 3219 3222 3223 3225 3226 3227 3229 3230 3232 3233 3234 3236 3237 3238 3238 3239 3240 3240 3241 3241 3242 3243 3244 3245 3246 3247 3248 3249 3250 3251 3251 3252 3252 3253 3253 3253 3254 3254 3255 3255 3255 3256 3256 3256 3256 3255 3255 3255 3254 3253 3253 3251 3251 3250 3249 3248 3247 3246 3245 3244 3243 3242 3240 3238 3236 3234 3232 3231 3229 3227 3226 3225 3223 3221 3220 3218 3216 3214 3212 3210 3208 3205
3212 3214 3215 3217 3219 3221 3222 3224 3225 3226 3228 3230 3231 3232 3234 3235 3236 3237 3237 3238 3239 3239 3240 3241 3242 3242 3243 3244 3245 3246 3247 3248 3249 3250 3251 3251 3252 3252 3253 3253 3253 3254 3254 3254 3255 3255 3255 3255 3255 3254 3254 3253 3252 3252 3251 3250 3249 3248 3248 3247 3246 3245 3244 3242 3240 3239 3237 3234 3232 3230 3228 3227 3225 3224 3223 3221 3220 3218 3217 3215 3213 3210 3208 3204 3202
3210 3211 3213 3215 3217 3219 3220 3221 3223 3224 3226 3228 3229 3230 3232 3233 3234 3235 3236 3236 3237 3238 3238 3239 3240 3240 3241 3243 3244 3245 3246 3247 3248 3249 3250 3250 3250 3251 3252 3252 3252 3252 3253 3253 3253 3253 3253 3254 3253 3253 3252 3252 3251 3251 3250 3249 3249 3248 3247 3246 3245 3243 3242 3240 3238 3236 3234 3232 3230 3228 3226 3225 3224 3222 3221 3220 3218 3217 3216 3214 3211 3208 3205 3201 3198
3207 3209 3211 3213 3214 3216 3218 3219 3221 3222 3224 3225 3227 3229 3230 3231 3233 3233 3234 3234 3235 3236 3236 3237 3238 3239 3240 3241 3242 3243 3244 3245 3246 3247 3248 3249 3249 3250 3250 3251 3251 3251 3251 3252 3252 3252 3252 3252 3252 3251 3251 3250 3250 3249 3249 3248 3247 3246 3245 3244 3242 3241 3239 3237 3236 3234 3232 3230 3228 3226 3225 3223 3222 3221 3220 3219 3217 3216 3214 3212 3209 3206 3203 3199 3195
3205 3207 3209 3211 3212 3214 3216 3217 3218 3220 3221 3223 3225 3227 3228 3229 3230 3231 3232 3233 3233 3234 3235 3235 3236 3237 3238 3239 3240 3241 3242 3243 3244 3245 3246 3247 3247 3248 3248 3249 3249 3249 3250 3250 3250 3250 3250 3250 3250 3250 3250 3249 3248 3248 3247 3246 3245 3244 3242 3240 3239 3238 3236 3235 3233 3231 3229 3227 3226 3225 3223 3222 3221 3220 3219 3217 3216 3214 3213 3210 3208 3205 3201 3197 3193
3203 3204 3206 3208 3210 3212 3214 3215 3216 3218 3219 3221 3222 3225 3226 3227 3228 3229 3230 3231 3231 3232 3233 3233 3234 3235 3236 3237 3238 3239 3240 3241 3242 3243 3244 3245 3245 3246 3247 3247 3248 3248 3248 3248 3248 3248 3248 3248 3248 3248 3248 3247 3246 3246 3245 3244 3243 3242 3240 3237 3236 3235 3233 3232 3231 3230 3228 3226 3223 3222 3222 3221 3220 3218 3217 3216 3214 3213 3211 3208 3206 3203 3199 3195 3191
3201 3202 3204 3206 3208 3210 3211 3213 3214 3215 3217 3218 3220 3222 3224 3225 3226 3227 3228 3229 3230 3230 3231 3232 3232 3233 3234 3235 3236 3237 3238 3239 3240 3241 3242 3243 3243 3244 3245 3245 3246 3246 3246 3246 3247 3247 3247 3247 3247 3246 3246 3246 3245 3244 3244 3243 3241 3240 3238 3236 3235 3234 3232 3230 3228 3228 3227 3226 3223 3220 3220 3220 3218 3217 3216 3214 3212 3210 3208 3206 3204 3201 3198 3194 3190
3199 3200 3202 3203 3206 3208 3209 3210 3212 3213 3214 3215 3217 3219 3221 3223 3224 3225 3226 3227 3228 3229 3229 3230 3231 3231 3232 3233 3234 3235 3236 3237 3238 3239 3240 3240 3241 3242 3243 3243 3244 3244 3244 3245 3245 3245 3245 3245 3245 3245 3244 3244 3243 3242 3241 3240 3239 3238 3237 3236 3234 3233 3231 3229 3226 3225 3224 3223 3222 3219 3218 3217 3216 3215 3214 3212 3211 3208 3206 3203 3201 3198 3195 3192 3188
3197 3198 3200 3201 3203 3205 3206 3208 3209 3210 3211 3213 3215 3217 3219 3221 3222 3223 3224 3225 3226 3227 3227 3228 3229 3229 3230 3231 3232 3233 3234 3234 3236 3237 3238 3238 3239 3240 3241 3241 3242 3242 3242 3243 3243 3243 3243 3243 3243 3243 3242 3242 3241 3240 3239 3238 3238 3237 3236 3234 3233 3232 3230 3228 3226 3224 3222 3220 3219 3218 3216 3215 3213 3213 3212 3210 3209 3206 3203 3200 3197 3194 3190 3187 3183
3194 3196 3198 3198 3200 3202 3204 3205 3206 3208 3209 3210 3213 3215 3217 3218 3219 3220 3221 3222 3223 3224 3225 3225 3226 3227 3228 3229 3230 3231 3231 3232 3233 3235 3236 3237 3237 3238 3239 3239 3240 3240 3241 3241 3241 3242 3241 3241 3241 3241 3240 3240 3239 3238 3238 3237 3237 3236 3234 3233 3231 3230 3228 3226 3225 3223 3220 3217 3215 3215 3214 3212 3211 3210 3210 3208 3206 3203 3199 3196 3193 3190 3187 3183 3180
3191 3194 3195 3196 3197 3199 3201 3203 3204 3205 3207 3208 3210 3212 3214 3216 3217 3218 3219 3220 3220 3221 3222 3223 3224 3224 3226 3226 3227 3228 3229 3230 3231 3232 3234 3235 3235 3236 3237 3237 3238 3238 3239 3239 3239 3240 3240 3239 3239 3239 3239 3238 3237 3237 3237 3236 3235 3234 3232 3231 3229 3227 3226 3224 3222 3221 3219 3215 3213 3212 3212 3210 3208 3207 3207 3205 3203 3199 3195 3192 3189 3188 3186 3183 3180
3189 3191 3193 3194 3195 3197 3198 3200 3201 3203 3204 3206 3207 3209 3212 3214 3215 3216 3216 3217 3218 3219 3219 3220 3221 3222 3223 3224 3225 3226 3227 3228 3229 3230 3231 3232 3233 3234 3235 3235 3236 3236 3237 3237 3237 3238 3238 3237 3237 3237 3237 3236 3236 3236 3236 3234 3233 3231 3230 3228 3227 3225 3223 3221 3220 3218 3217 3214 3211 3209 3209 3208 3205 3204 3203 3202 3199 3196 3193 3191 3188 3186 3185 3183 3179
3185 3188 3190 3192 3193 3194 3196 3197 3199 3201 3202 3204 3205 3207 3209 3211 3212 3213 3214 3215 3215 3216 3216 3217 3218 3219 3220 3221 3223 3224 3225 3225 3226 3228 3229 3230 3231 3232 3232 3233 3234 3235 3235 3235 3236 3236 3235 3235 3235 3235 3235 3235 3234 3234 3234 3232 3231 3229 3228 3226 3225 3223 3220 3218 3217 3216 3214 3212 3209 3207 3207 3206 3203 3200 3198 3197 3195 3193 3191 3188 3186 3183 3181 3179 3175
3182 3185 3187 3189 3191 3192 3193 3194 3196 3198 3200 3201 3203 3204 3206 3209 3210 3211 3211 3212 3212 3213 3214 3214 3215 3217 3218 3219 3220 3221 3222 3223 3224 3225 3226 3228 3228 3229 3230 3231 3232 3232 3233 3233 3234 3234 3234 3234 3233 3233 3233 3233 3233 3232 3232 3230 3229 3227 3226 3224 3222 3220 3217 3215 3213 3212 3211 3209 3207 3204 3204 3204 3202 3199 3197 3193 3192 3190 3188 3185 3183 3180 3177 3174 3171
3180 3182 3184 3186 3188 3189 3191 3192 3193 3195 3197 3198 3200 3202 3204 3206 3207 3208 3209 3209 3210 3210 3211 3212 3213 3214 3215 3217 3218 3219 3220 3221 3222 3223 3224 3225 3226 3226 3227 3228 3229 3230 3230 3231 3232 3232 3232 3232 3231 3231 3231 3231 3230 3230 3229 3228 3227 3225 3223 3222 3220 3217 3215 3212 3210 3209 3208 3206 3204 3202 3201 3201 3199 3197 3196 3193 3189 3187 3185 3183 3180 3177 3174 3171 3168
3177 3178 3180 3183 3185 3186 3188 3190 3191 3192 3194 3195 3197 3199 3201 3203 3204 3205 3206 3207 3207 3208 3208 3209 3210 3211 3213 3214 3215 3216 3217 3218 3219 3220 3221 3222 3223 3224 3225 3225 3226 3227 3228 3228 3229 3229 3229 3229 3229 3229 3229 3228 3228 3227 3226 3225 3223 3222 3220 3218 3216 3215 3213 3210 3208 3206 3204 3203 3202 3200 3198 3197 3195 3193 3192 3192 3189 3184 3181 3180 3178 3174 3171 3168 3165
3174 3176 3178 3180 3182 3183 3185 3187 3188 3190 3192 3193 3195 3196 3198 3200 3201 3202 3203 3204 3204 3205 3206 3207 3207 3209 3210 3212 3213 3214 3215 3216 3217 3218 3219 3219 3220 3221 3222 3223 3223 3224 3225 3226 3226 3226 3226 3226 3226 3226 3226 3225 3225 3224 3223 3222 3220 3219 3217 3215 3213 3212 3210 3208 3206 3204 3202 3200 3199 3198 3195 3193 3192 3189 3187 3188 3189 3186 3180 3177 3174 3171 3167 3165 3162
3172 3173 3175 3177 3179 3180 3182 3184 3186 3188 3189 3190 3192 3193 3195 3196 3198 3199 3200 3201 3201 3202 3203 3204 3205 3206 3207 3209 3210 3211 3212 3213 3214 3215 3216 3217 3218 3219 3220 3220 3220 3221 3222 3223 3223 3224 3224 3224 3223 3223 3222 3222 3222 3221 3220 3219 3218 3216 3214 3212 3210 3208 3207 3205 3203 3201 3200 3197 3196 3195 3193 3191 3190 3187 3184 3181 3182 3183 3181 3176 3171 3167 3163 3160 3157